Flag for Vatican City State Weather past 2 weeks in Vatican City, Vatican City State

Now
73 °F

Partly cloudy.


Feels Like: 72 °F
Forecast: 65 / 84 °F
Wind: 2 mph from South

Location: Rome / Ciampino

Current Time: Aug 2, 2014 at 4:57:13 AM

Latest Report: Aug 2, 2014 at 4:15 AM


Visibility: 4 mi

Pressure: 29.83 "Hg

Humidity: 89%

Dew point: 70 °F

Location of Vatican CityLocation

Historic Weather in Vatican City — Graph

°F

Vatican City temperature yesterday

Maximum temperature yesterday: 84 °F (at 2:15 PM)
Minimum temperature yesterday: 66 °F (at 4:45 AM)
Average temperature yesterday: 75 °F

Past Weeks' High & Low Weather Summary

 TemperatureHumidityPressure
High91 °F (Jul 20, 3:15 PM)100% (Jul 22, 5:15 AM)30.04 "Hg (Jul 22, 5:15 AM)
Low59 °F (Jul 31, 6:45 AM)29% (Jul 18, 2:45 PM)29.65 "Hg (Jul 30, 6:15 AM)
Average74 °F70%29.86 "Hg
* Reported Jul 18 3:15 AM — Aug 2 3:45 AM, Vatican City, Weather by CustomWeather, © 2014

Note: Actual official high and low records may vary slightly from our data, if they occured in-between our weather recording intervals... More about our weather records

Advertising

Vatican City weather history for previous 24 hours

 ConditionsComfort  
Time TempWeatherWind HumidityBarometerVisibility
3:45 AM
Aug 2
73 °FPartly cloudy.2 mph89%29.83 "Hg4 mi
3:15 AM73 °FPartly cloudy.2 mph89%29.83 "Hg4 mi
2:45 AM73 °FPartly cloudy.2 mph89%29.83 "Hg4 mi
2:15 AM73 °FPassing clouds.3 mph89%29.83 "Hg4 mi
1:15 AM73 °FPassing clouds.5 mph89%29.83 "Hg4 mi
12:45 AM73 °FPassing clouds.6 mph89%29.83 "Hg4 mi
12:15 AM72 °FPassing clouds.5 mph88%29.83 "HgN/A
11:45 PM
Aug 1
73 °FPassing clouds.5 mph89%29.83 "HgN/A
11:15 PM73 °FClear.6 mph89%29.80 "Hg10 mi
10:45 PM73 °FClear.5 mph89%29.80 "Hg10 mi
10:15 PM73 °FClear.6 mph89%29.80 "Hg10 mi
9:45 PM73 °FClear.5 mph83%29.80 "Hg10 mi
9:15 PM75 °FPassing clouds.6 mph74%29.80 "HgN/A
8:45 PM77 °FPassing clouds.5 mph74%29.80 "HgN/A
8:15 PM79 °FPassing clouds.5 mph70%29.80 "HgN/A
7:45 PM79 °FPassing clouds.7 mph65%29.80 "HgN/A
7:15 PM79 °FPassing clouds.7 mph61%29.80 "HgN/A
6:45 PM79 °FPassing clouds.9 mph61%29.80 "HgN/A
6:15 PM81 °FPassing clouds.9 mph58%29.80 "HgN/A
5:45 PM81 °FPassing clouds.9 mph58%29.80 "HgN/A
5:15 PM82 °FPassing clouds.10 mph55%29.80 "HgN/A
4:45 PM84 °FPassing clouds.10 mph51%29.80 "HgN/A
4:15 PM84 °FPassing clouds.10 mph51%29.80 "HgN/A
3:45 PM84 °FScattered clouds.9 mph51%29.80 "HgN/A
3:15 PM84 °FScattered clouds.8 mph51%29.80 "HgN/A
2:45 PM84 °FScattered clouds.7 mph51%29.80 "HgN/A
2:15 PM84 °FScattered clouds.7 mph51%29.80 "HgN/A
1:45 PM82 °FScattered clouds.3 mph51%29.80 "HgN/A
1:15 PM82 °FScattered clouds.3 mph51%29.80 "HgN/A
12:45 PM81 °FPassing clouds.5 mph54%29.80 "HgN/A
12:15 PM79 °FPassing clouds.2 mph54%29.83 "HgN/A
11:45 AM79 °FPassing clouds.3 mph54%29.83 "HgN/A
11:15 AM77 °FPassing clouds.5 mph57%29.83 "HgN/A
10:45 AM77 °FSunny.5 mph57%29.83 "Hg10 mi
10:15 AM75 °FSunny.3 mph65%29.83 "Hg10 mi
9:45 AM73 °FSunny.3 mph65%29.80 "Hg10 mi
9:15 AM73 °FSunny.3 mph69%29.80 "Hg10 mi
8:45 AM72 °FSunny.3 mph83%29.80 "Hg10 mi
8:15 AM70 °FSunny.3 mph83%29.80 "Hg10 mi
7:45 AM68 °FSunny.2 mph88%29.80 "Hg10 mi
7:15 AM68 °FSunny.1 mph83%29.83 "Hg10 mi
6:45 AM66 °FClear.No wind88%29.83 "Hg10 mi
6:15 AM66 °FClear.No wind83%29.83 "Hg10 mi
5:45 AM66 °FClear.No wind88%29.83 "Hg10 mi
5:15 AM66 °FClear.No wind88%29.83 "Hg10 mi
4:45 AM66 °FClear.No wind88%29.83 "Hg10 mi
4:15 AM68 °FClear.No wind83%29.83 "Hg10 mi
Weather by CustomWeather, © 2014

See weather overviewHow to use our weather pages